Weather Roundup
Issued by NWS Chicago, IL

Home | Current Version | Previous Version | Graphics & Text | Print | Product List | Glossary Off
Versions: 1 2 3 4 5 6 7 8 9 10 11 12 13 14 15 16 17 18 19 20 21 22 23 24 25 26 27 28 29 30 31 32 33 34 35 36 37 38 39 40 41 42 43 44 45 46 47 48 49 50

000
NZUS59 KLOT 202310
HRRLOT

CHICAGO AREA WEATHER ROUNDUP
NATIONAL WEATHER SERVICE CHICAGO/ROMEOVILLE IL
600 PM CDT SAT SEP 20 2014

NOTE: "FAIR" INDICATES FEW OR NO CLOUDS BELOW 12,000 FEET WITH NO
SIGNIFICANT WEATHER AND/OR OBSTRUCTIONS TO VISIBILITY.

* THESE STATIONS ARE NOT UNDER NWS QUALITY CONTROL. THEY ALSO MAY NOT
  REPORT WEATHER SUCH AS PRECIPITATION OR FOG.

ILZ005-006-012>014-019>023-210000-
NORTHEAST ILLINOIS

CITY           SKY/WX    TMP DP  RH WIND       PRES   REMARKS
OHARE          PTCLDY    77  65  66 SW8       29.78S
MIDWAY         PTCLDY    76  67  73 S12       29.79R
AURORA         CLEAR     75  63  66 SW9       29.80S
LANSING*       MOCLDY    74  68  82 W8        29.81S
JOLIET*        PTCLDY    73  64  72 SW5       29.81S
WAUKEGAN       CLEAR     71  65  81 SW7       29.76S
DUPAGE AIRPORT CLEAR     75  63  66 SW10      29.79R
WHEELING       PTCLDY    76  62  62 SW8       29.79S
KANKAKEE*      MOCLDY    76  70  81 SW3       29.82R
MORRIS*        PTCLDY    74  67  79 W5        29.81S
LEWIS AIRPORT* PTCLDY    73  62  69 W5        29.80F
NORTHERLY IS     N/A     75  66  73 S9          N/A
$$

WIZ051-052-058>065-066-070>072-210000-
SOUTHEAST WISCONSIN

CITY           SKY/WX    TMP DP  RH WIND       PRES   REMARKS
MILWAUKEE      PTCLDY    74  62  66 SW12      29.74R
KENOSHA*       CLEAR     71  66  84 SW8       29.77R
RACINE*        CLEAR     72  65  78 SW12G21   29.77R
BURLINGTON     PTCLDY    71  62  73 SW8       29.77R
WAUKESHA       MOCLDY    72  63  73 SW8       29.76R
WEST BEND      PTCLDY    72  59  64 W7        29.73S
$$

INZ001>003-010>013-019-020-210000-
NORTHWEST INDIANA

CITY           SKY/WX    TMP DP  RH WIND       PRES   REMARKS
GARY*          PTCLDY    73  68  83 SW3       29.80F
MICHIGAN CITY* NOT AVBL
RENSSELAER*    NOT AVBL
$$

LMZ740>746-210000-
SOUTHERN LAKE MICHIGAN

STATION/POSITION TIME  SKY/WX   TEMP WIND        PRES    VSBY
                                AIR  DIR/SP/G
                 (UTC)          (F)  (DEG/KT/KT) (MB)    (MI)
HARRISON CRIB    2300            74  230/  9/ 13   N/A
BURNHAM HARBOR   2300            75  170/  4/ 10   N/A
CALUMET HARBOR   2300            72  210/  5/  7 1007.8S
BURNS HARBOR     NOT AVBL
MICHIGAN CITY    2300            69  180/  9/ 11   N/A
$$

ABBREVIATIONS USED IN REMARKS
   TC - TEMPERATURE IN CELSIUS
  WCI - WIND CHILL INDEX
   HX - HEAT INDEX
  VSB - VISIBILITY
$$



USA.gov is the U.S. government's official web portal to all federal, state and local government web resources and services.